Location: Unspecified
(0.0000°N, 0.0000°E)
Time: 18:45:45
(UTC+00:00)

Vanguard 1 - Pass Details

Date: 24 November 2019
Orbit: 652 x 3831 km, 34.2° (Epoch: 05 December)

Event Time Altitude Azimuth Distance (km) Brightness Sun altitude
Rises 06:39:20 0° 246° (WSW) 7,974 14.3 12.3°
Reaches altitude 10° 06:45:19 10° 251° (WSW) 6,868 14.0 13.7°
Maximum altitude 07:05:58 48° 319° (NW) 3,516 12.7 18.5°
Drops below altitude 10° 07:18:52 10° 31° (NNE) 4,442 13.6 21.5°
Sets 07:21:51 0° 38° (NE) 5,083 13.9 22.2°
